Location: St. Louis
(38.6270°N, 90.1994°W)
Time: 01:51:51
(UTC-05:00)

Hubble Space Telescope - Pass Details

Date: 04 March 2014
Orbit: 539 x 542 km, 28.5° (Epoch: 26 September)

Event Time Altitude Azimuth Distance (km) Brightness Sun altitude
Rises 18:35:48 0° 236° (SW) 2,701 5.4 -8.4°
Reaches altitude 10° 18:38:36 10° 218° (SW) 1,808 4.0 -8.9°
Maximum altitude 18:41:32 19° 173° (S) 1,348 2.7 -9.5°
Drops below altitude 10° 18:44:29 10° 128° (SE) 1,807 3.0 -10.1°
Enters shadow 18:44:48 - 125° (SE) 1,898 3.1 -10.2°
